Погода в Докшицах

Беларусь     54˚53′31″N   27˚45′54″E
темп.,
°C
ветер,
м/с
пор.,
м/с
влажн.,
%
обл.,
%
осадки,
мм/ч
давл.,
гПа
погр.,
м
6 декабря, вс
вс600:00+1˚ююв81589100 0.0 1027623
03:00+1˚ююв71388100 0.0 1028718
06:00ююв71389100 0.0 1028639
09:00−1˚ююв7138994 0.0 1030541
12:00ююв8167626 0.0 1030581
15:00ююв7156013 0.0 1030556
18:00−2˚юв816620 0.0 1031441
21:00−3˚юв715610 0.0 1032434
7 декабря, пн
пн700:00−3˚юв716610 0.0 1032468
03:00−3˚юв714700 0.0 1032519
06:00−4˚юв714690 0.0 1031534
09:00−4˚юв814680 0.0 1032546
12:00−4˚юв815650 0.0 1031579
15:00−3˚юв814590 0.0 1031632
18:00−4˚юв715630 0.0 1031554
21:00−5˚юв714630 0.0 1031499
8 декабря, вт
вт800:00−5˚юв714650 0.0 1031529
03:00−5˚юв714640 0.0 1031520
06:00−6˚юв714650 0.0 1031471
09:00−6˚юв712660 0.0 1031439
12:00−5˚юв713620 0.0 1031445
15:00−4˚юв713620 0.0 1031448
18:00−5˚вюв613660 0.0 1030403
21:00−5˚юв612660 0.0 1031435
9 декабря, ср
ср900:00−5˚юв612680 0.0 1031504
03:00−5˚юв511690 0.0 1031516
06:00−6˚юв512680 0.0 1031447
09:00−6˚юв510670 0.0 1031397
12:00−5˚вюв59610 0.0 1031375
15:00−4˚вюв59600 0.0 1030435
18:00−5˚вюв5116789 0.0 1029423
21:00−5˚юв5126945 0.0 1029464
10 декабря, чт
чт1000:00−5˚юв5117410 0.0 1028508
03:00−5˚юв5117621 0.0 1028502
06:00−5˚юв6119396 0.4 1027445
09:00−5˚юв6109198 1.1 1027431
12:00−4˚вюв6108696 0.1 1027330
15:00−3˚юв7128896 0.2 1026373
18:00−3˚юв61189100 0.0 1026423
21:00−2˚юв71294100 0.5 1025401